Location: Diebersbach
(48.5163°N, 8.0558°E)
Time: 21:44:38
(UTC+00:00)

Cosmos 1242 Rocket - Pass Details

Date: 22 October 2021
Orbit: 444 x 481 km, 81.2° (Epoch: 27 November)

Event Time Altitude Azimuth Distance (km) Brightness Sun altitude
Rises 05:19:26 0° 8° (N) 2,560 6.2 -7.1°
Reaches altitude 10° 05:23:47 10° 57° (ENE) 1,672 6.1 -6.4°
Maximum altitude 05:24:01 10° 61° (ENE) 1,668 6.1 -6.4°
Drops below altitude 10° 05:24:16 10° 65° (ENE) 1,672 6.2 -6.4°
Sets 05:28:33 0° 114° (ESE) 2,538 8.2 -5.7°
